Tracking 25723 objects as of 26-Jun-2022
HD Live streaming from Space Station
objects crossing your sky now

DMSP 5D-2 F13 DEB

Track DMSP 5D-2 F13 DEB now!
10-day predictions


NORAD ID: 40672
Int'l Code: 1995-015FL
Perigee: 803.3 km
Apogee: 807.9 km
Inclination: 98.7 °
Period: 100.8 minutes
Semi major axis: 7176 km
RCS: Unknown
Launch date: March 24, 1995
Source: United States (US)
Launch site: AIR FORCE WESTERN TEST RANGE (AFWTR)

Note: This is SATELLITE DEBRIS
aabbcc
Your satellite tracking list
Your tracking list is empty




NASA's NSSDC Master Catalog

Two Line Element Set (TLE):
1 40672U 95015FL  22177.02323987  .00004061  00000-0  16545-2 0  9996
2 40672  98.7256 199.8056 0003236 161.1472 198.9830 14.27994993376148
Source of the keplerian elements: AFSPC